ASIASAT 8 (AMOS-7) (40107 NORAD) Tracking and Keplerian Element Data

This shows tracking and keplerian element data for the satellite.

Feedback or suggestion? Click here.




ElementValue
Catalog40107
NameASIASAT 8 (AMOS-7)
Epoch Orbit3608
Epoch Day160.13728324
Epoch Year2024
RAAN81.1718
Inclination0.0157
Eccentricity0.0001707
Argument of Perigee351.3555
Mean Anonmoly230.0104
Mean Motion1.00271594
Decay Rate-3.4E-07
L11 40107U 14046A 24160.13728324 -.00000034 00000+0 00000+0 0 9996
L22 40107 0.0157 81.1718 0001707 351.3555 230.0104 1.00271594 36081



Live tracking and technical data element details for ASIASAT 8 (AMOS-7) (NORAD 40107). ASIASAT 8 (AMOS-7) can be tracked NOW for your location showing map with azimuth and elevation plus other details from your city location.







IsCatalogInMostPopularTable: catalog: 40107, numindb: 597
Update: records affected: 1



GetName: 40107 ASIASAT 8 (AMOS-7)

Hit Count: updated at: Mon, 17 Jun 2024 22:36:58 GMT